Location: ??? ?????
(30.6482°N, 60.5850°E)
Time: 07:33:29
(UTC+00:00)

USA 267 - Pass Details

Date: 09 April 2020
Orbit: 1101 x 1107 km, 123.0° (Epoch: 05 April)

Event Time Altitude Azimuth Distance (km) Brightness Sun altitude
Rises 22:34:51 0° 39° (NE) 3,918 7.1 -36.2°
Reaches altitude 10° 22:37:20 10° 38° (NE) 2,958 6.2 -35.8°
Enters shadow 22:42:45 63° 18° (NNE) 1,219 3.5 -34.9°
